Eindhoven, Netherlands

7:40 AM CET on November 18, 2017 (GMT +0100)
Eindhoven Air Base

Weather History for EHEH - February, 2013

Change the Weather History Date:

Sunday, February 10, 2013

  Actual Average Record
Temperature  
Mean Temperature 32 °F -  
Max Temperature 35 °F 45 °F 55 °F (2008)
Min Temperature 28 °F 33 °F 15 °F (2012)
Degree Days  
Heating Degree Days 34    
Moisture  
Dew Point 26 °F    
Average Humidity 81    
Maximum Humidity 100    
Minimum Humidity 44    
Precipitation  
Precipitation 0.01 in - - ()
Sea Level Pressure  
Sea Level Pressure 29.84 in    
Wind  
Wind Speed 8 mph ()    
Max Wind Speed 15 mph    
Max Gust Speed 26 mph    
Visibility 6.2 miles    
Events Rain , Snow    
Averages and records for this station are not official NWS values.
T = Trace of Precipitation, MM = Missing Value Source: Averaged Metar Reports

Daily Weather History Graph

Daily Weather History Graph

Search for Another Location

Airport or City:

Trip Planner

Search our weather history database for the weather conditions in past years. The results will help you decide how hot, cold, wet, or windy it might be!

Date:

Astronomy

Feb. 10, 2013 Rise Set
Actual Time 8:01 AM CET 5:44 PM CET
Civil Twilight 7:26 AM CET 6:19 PM CET
Nautical Twilight 6:46 AM CET 6:59 PM CET
Astronomical Twilight 6:08 AM CET 7:37 PM CET
Moon 7:34 AM CET (2/10) 6:27 PM CET (2/10)
Length of Visible Light 10h 53m
Length of Day
9h 43m
New Moon, 0% of the Moon is Illuminated
Feb 10
New Moon
Feb 17
First Quarter
Feb 25
Full
Mar 4
Last Quarter
Mar 11
New

Hourly Weather History & Observations

Time (CET) Temp. Windchill Dew Point Humidity Pressure Visibility Wind Dir Wind Speed Gust Speed Precip Events Conditions
12:25 AM 32.0 °F 25.6 °F 32.0 °F 100% 30.01 in - South 6.9 mph - N/A   Mostly Cloudy
12:30 AM 32.0 °F 26.4 °F 32.0 °F 100% 30.01 in 2.8 mi South 5.8 mph - N/A   Mostly Cloudy
12:34 AM 32.0 °F 26.4 °F 32.0 °F 100% 30.01 in 2.2 mi South 5.8 mph - N/A Snow Light Snow
12:38 AM 32.0 °F 26.4 °F 32.0 °F 100% 30.01 in - South 5.8 mph - N/A Snow Light Snow
12:55 AM 32.0 °F 25.6 °F 32.0 °F 100% 30.01 in - South 6.9 mph - N/A Snow Light Snow
1:00 AM 31 °F - 31 °F 100% 30.01 in 3 mi South 6.7 mph - - Snow Light Snow Showers
1:09 AM 32.0 °F 26.4 °F 30.2 °F 93% 30.01 in - South 5.8 mph - N/A Snow Light Snow
1:10 AM 32.0 °F 26.4 °F 30.2 °F 93% 30.01 in - South 5.8 mph - N/A Snow Light Snow
1:25 AM 32.0 °F 26.4 °F 30.2 °F 93% 30.01 in 2.8 mi South 5.8 mph - N/A Snow Light Snow
1:46 AM 30.2 °F 21.9 °F 30.2 °F 100% 29.98 in 4.3 mi South 9.2 mph - N/A Snow Light Snow
1:55 AM 30.2 °F 22.6 °F 30.2 °F 100% 29.98 in 5.0 mi South 8.1 mph - N/A   Overcast
1:59 AM 30.2 °F 22.6 °F 30.2 °F 100% 29.98 in 5.0 mi South 8.1 mph - N/A   Mostly Cloudy
2:04 AM 30.2 °F 22.6 °F 30.2 °F 100% 29.98 in 5.0 mi South 8.1 mph - N/A   Mostly Cloudy
2:08 AM 30.2 °F 22.6 °F 30.2 °F 100% 29.98 in 5.0 mi South 8.1 mph - N/A   Mostly Cloudy
2:14 AM 30.2 °F 22.6 °F 30.2 °F 100% 29.98 in 5.0 mi South 8.1 mph - N/A   Mostly Cloudy
2:18 AM 30.2 °F 22.6 °F 30.2 °F 100% 29.98 in 3.7 mi South 8.1 mph - N/A Snow Light Snow
2:25 AM 30.2 °F 22.6 °F 30.2 °F 100% 29.98 in 5.0 mi South 8.1 mph - N/A Snow Light Snow
2:29 AM 30.2 °F 22.6 °F 30.2 °F 100% 29.98 in 5.6 mi South 8.1 mph - N/A   Overcast
2:39 AM 30.2 °F 21.9 °F 30.2 °F 100% 29.98 in 4.3 mi South 9.2 mph - N/A Snow Light Snow
2:43 AM 30.2 °F 22.6 °F 30.2 °F 100% 29.98 in 5.0 mi South 8.1 mph - N/A Snow Light Snow
2:47 AM 30.2 °F 22.6 °F 30.2 °F 100% 29.98 in 4.3 mi South 8.1 mph - N/A Snow Light Snow
2:51 AM 30.2 °F 22.6 °F 30.2 °F 100% 29.98 in 5.0 mi South 8.1 mph - N/A Snow Light Snow
2:55 AM 30.2 °F 22.6 °F 30.2 °F 100% 29.98 in 5.0 mi South 8.1 mph - N/A   Overcast
3:08 AM 30.2 °F 22.6 °F 30.2 °F 100% 29.98 in 5.0 mi South 8.1 mph - N/A   Overcast
3:25 AM 30.2 °F 22.6 °F 30.2 °F 100% 29.95 in 5.6 mi SSE 8.1 mph - N/A   Overcast
3:55 AM 30.2 °F 21.9 °F 30.2 °F 100% 29.95 in 6.2 mi SSE 9.2 mph - N/A   Overcast
4:00 AM 31 °F - 29 °F 92% 29.96 in 6 mi SSE 8.9 mph - - Rain Light Freezing Rain
4:25 AM 30.2 °F 22.6 °F 30.2 °F 100% 29.95 in 6.2 mi South 8.1 mph - N/A   Overcast
4:55 AM 30.2 °F 22.6 °F 28.4 °F 93% 29.92 in 6.2 mi South 8.1 mph - N/A   Overcast
5:25 AM 30.2 °F 23.4 °F 28.4 °F 93% 29.92 in 6.2 mi South 6.9 mph - N/A   Overcast
5:55 AM 30.2 °F 22.6 °F 28.4 °F 93% 29.92 in 6.2 mi SSE 8.1 mph - N/A   Overcast
6:25 AM 30.2 °F 22.6 °F 28.4 °F 93% 29.89 in 6.2 mi SSE 8.1 mph - N/A   Overcast
6:55 AM 30.2 °F 22.6 °F 28.4 °F 93% 29.89 in 6.2 mi SSE 8.1 mph - N/A   Mostly Cloudy
7:00 AM 29 °F - 28 °F 92% 29.91 in 9 mi SSE 8.9 mph - -   Partly Cloudy
7:25 AM 30.2 °F 21.9 °F 28.4 °F 93% 29.89 in 6.2 mi SSE 9.2 mph - N/A   Overcast
7:55 AM 30.2 °F 22.6 °F 26.6 °F 86% 29.89 in 6.2 mi South 8.1 mph - N/A   Overcast
8:25 AM 28.4 °F 20.4 °F 26.6 °F 93% 29.89 in 6.2 mi SSE 8.1 mph - N/A   Overcast
8:55 AM 30.2 °F 21.9 °F 26.6 °F 86% 29.89 in 6.2 mi SSE 9.2 mph - N/A   Overcast
9:06 AM 28.4 °F 19.7 °F 24.8 °F 86% 29.89 in 6.2 mi SSE 9.2 mph - N/A   Overcast
9:25 AM 30.2 °F 22.6 °F 24.8 °F 80% 29.89 in 6.2 mi SSE 8.1 mph - N/A   Unknown
9:36 AM 30.2 °F 22.6 °F 24.8 °F 80% 29.89 in 6.2 mi SSE 8.1 mph - N/A   Unknown
9:55 AM 30.2 °F 21.9 °F 24.8 °F 80% 29.86 in 6.2 mi SSE 9.2 mph - N/A   Unknown
10:00 AM 31 °F - 25 °F 69% 29.88 in 12 mi SSE 8.9 mph - -   Unknown Precipitation
10:25 AM 32.0 °F 23.6 °F 24.8 °F 75% 29.86 in 6.2 mi SSE 10.4 mph - N/A   Unknown
10:38 AM 32.0 °F 23.0 °F 24.8 °F 75% 29.86 in 6.2 mi SSE 11.5 mph - N/A   Unknown
10:55 AM 32.0 °F 23.0 °F 24.8 °F 75% 29.86 in 6.2 mi SSE 11.5 mph - N/A   Partly Cloudy
11:25 AM 32.0 °F 23.0 °F 23.0 °F 69% 29.83 in 6.2 mi SSE 11.5 mph - N/A   Unknown
11:55 AM 33.8 °F 24.3 °F 24.8 °F 70% 29.83 in 6.2 mi SSE 13.8 mph - N/A   Unknown
12:25 PM 33.8 °F 24.3 °F 23.0 °F 65% 29.80 in 6.2 mi SSE 13.8 mph - N/A   Partly Cloudy
12:55 PM 33.8 °F 23.9 °F 23.0 °F 65% 29.80 in 6.2 mi SSE 15.0 mph - N/A   Unknown
1:00 PM 35 °F - 23 °F 49% 29.80 in 19 mi SSE 13.4 mph - -   Partly Cloudy
1:25 PM 35.6 °F 27.1 °F 23.0 °F 60% 29.77 in 6.2 mi SSE 12.7 mph - N/A   Scattered Clouds
1:55 PM 35.6 °F 27.5 °F 23.0 °F 60% 29.77 in 6.2 mi SSE 11.5 mph - N/A   Partly Cloudy
2:25 PM 35.6 °F 26.6 °F 23.0 °F 60% 29.74 in 6.2 mi SSE 13.8 mph - N/A   Mostly Cloudy
2:55 PM 35.6 °F 26.6 °F 23.0 °F 60% 29.74 in 6.2 mi SE 13.8 mph - N/A   Partly Cloudy
3:25 PM 35.6 °F 26.6 °F 23.0 °F 60% 29.74 in 6.2 mi SE 13.8 mph - N/A   Scattered Clouds
3:55 PM 35.6 °F 26.6 °F 21.2 °F 56% 29.71 in 6.2 mi SE 13.8 mph - N/A   Partly Cloudy
4:00 PM 36 °F - 22 °F 44% 29.73 in 19 mi SE 13.4 mph - -   Scattered Clouds
4:25 PM 35.6 °F 27.5 °F 21.2 °F 56% 29.71 in 6.2 mi SSE 11.5 mph - N/A   Mostly Cloudy
4:55 PM 35.6 °F 27.1 °F 21.2 °F 56% 29.68 in 6.2 mi SE 12.7 mph - N/A   Partly Cloudy
5:25 PM 33.8 °F 25.3 °F 21.2 °F 60% 29.68 in 6.2 mi SE 11.5 mph - N/A   Partly Cloudy
5:55 PM 33.8 °F 24.8 °F 19.4 °F 56% 29.68 in 6.2 mi SE 12.7 mph - N/A   Scattered Clouds
6:25 PM 33.8 °F 26.4 °F 21.2 °F 60% 29.65 in 6.2 mi ESE 9.2 mph - N/A   Unknown
6:55 PM 32.0 °F 24.2 °F 23.0 °F 69% 29.65 in 6.2 mi ESE 9.2 mph - N/A   Unknown
7:00 PM 33 °F - 22 °F 54% 29.67 in 28 mi ESE 8.9 mph - -   Partly Cloudy
7:25 PM 32.0 °F 22.5 °F 23.0 °F 69% 29.65 in 6.2 mi ESE 12.7 mph - N/A   Unknown
7:55 PM 32.0 °F 22.5 °F 23.0 °F 69% 29.65 in 6.2 mi ESE 12.7 mph - N/A   Unknown
8:25 PM 30.2 °F 20.8 °F 21.2 °F 69% 29.62 in 6.2 mi ESE 11.5 mph - N/A   Partly Cloudy
8:44 PM 30.2 °F 20.2 °F 23.0 °F 75% 29.62 in 6.2 mi ESE 12.7 mph - N/A   Unknown
8:55 PM 30.2 °F 20.2 °F 23.0 °F 75% 29.62 in 6.2 mi ESE 12.7 mph - N/A   Unknown
9:25 PM 30.2 °F 20.2 °F 21.2 °F 69% 29.62 in 6.2 mi ESE 12.7 mph 24.2 mph N/A   Overcast
9:55 PM 30.2 °F 19.3 °F 21.2 °F 69% 29.59 in 6.2 mi ESE 15.0 mph 26.5 mph N/A   Unknown
10:00 PM 31 °F - 21 °F 54% 29.62 in 22 mi ESE 13.4 mph - -   Scattered Clouds
10:25 PM 30.2 °F 19.3 °F 21.2 °F 69% 29.59 in 6.2 mi ESE 15.0 mph 26.5 mph N/A   Mostly Cloudy
10:55 PM 30.2 °F 19.8 °F 21.2 °F 69% 29.59 in 6.2 mi ESE 13.8 mph - N/A   Unknown
11:25 PM 30.2 °F 19.8 °F 19.4 °F 64% 29.59 in 6.2 mi ESE 13.8 mph - N/A   Mostly Cloudy
11:55 PM 30.2 °F 20.2 °F 19.4 °F 64% 29.59 in 6.2 mi ESE 12.7 mph 25.3 mph N/A   Overcast